Regional Weather Roundup
Issued by NWS

Home | Current Version | Previous Version | Text Only | Print | Product List | Glossary Off
Versions: 1 2 3 4 5 6 7 8 9 10 11 12 13 14 15 16 17 18 19 20 21 22 23 24 25 26 27 28 29 30 31 32 33 34 35 36 37 38 39 40 41 42 43 44 45 46 47 48 49 50

000
ASUS43 KMKX 290621
RWRWI

WISCONSIN REGIONAL WEATHER ROUNDUP
NATIONAL WEATHER SERVICE MILWAUKEE/SULLIVAN WI
100 AM CDT THU JUN 29 2017

NOTE: "FAIR" INDICATES FEW OR NO CLOUDS BELOW 12,000 FEET WITH NO
SIGNIFICANT WEATHER AND/OR OBSTRUCTIONS TO VISIBILITY.

WIZ001-002-006>008-014>016-023>028-290700-
NORTHWEST WISCONSIN

CITY           SKY/WX    TMP DP  RH WIND       PRES   REMARKS
SUPERIOR ARPT  NOT AVBL
ASHLAND        LGT RAIN  66  65  96 S7        29.50F FOG
6HR MIN TEMP:  63; 6HR MAX TEMP:  66; 6HR PCP:  0.33;

HAYWARD        CLOUDY    65  62  90 SW10      29.55S
6HR MIN TEMP:  65; 6HR MAX TEMP:  68; 6HR PCP:  0.13;

SIREN          CLOUDY    63  61  93 W12       29.58S
6HR MIN TEMP:  63; 6HR MAX TEMP:  69;

CUMBERLAND     CLOUDY    63  61  94 W14G20    29.59S
RICE LAKE      CLOUDY    66  61  86 SW8       29.59F
6HR MIN TEMP:  66; 6HR MAX TEMP:  69;

CHETEK         CLOUDY    65  64  96 SW5       29.59S
6HR MIN TEMP:  65; 6HR MAX TEMP:  69;

LADYSMITH      CLOUDY    66  64  95 SW8       29.59S
6HR MIN TEMP:  66; 6HR MAX TEMP:  69; 6HR PCP:  0.03;

EAU CLAIRE     MOCLDY    67  64  90 W10       29.59S
6HR MIN TEMP:  66; 6HR MAX TEMP:  70; 6HR PCP:  0.01;

MENOMONIE      MOCLDY    67  63  88 SW6       29.60F
6HR MIN TEMP:  67; 6HR MAX TEMP:  70;

NEW RICHMOND   CLOUDY    67  58  75 W12       29.62R
6HR MIN TEMP:  66; 6HR MAX TEMP:  74;

OSCEOLA        RAIN      66  62  87 W8        29.64R
6HR MIN TEMP:  66; 6HR MAX TEMP:  75;

$$

WIZ003>005-009-010-017-018-290700-
NORTH CENTRAL WISCONSIN

CITY           SKY/WX    TMP DP  RH WIND       PRES   REMARKS
MANITOWISH WTR CLOUDY    64  64 100 S7        29.57F
6HR MIN TEMP:  62; 6HR MAX TEMP:  64; 6HR PCP:  0.05;

ARBOR VITAE    CLOUDY    65  64  95 S8        29.58F
6HR MIN TEMP:  63; 6HR MAX TEMP:  65; 6HR PCP:  0.03;

WOODRUFF       CLOUDY    65  64  95 S8        29.58F
6HR MIN TEMP:  63; 6HR MAX TEMP:  65; 6HR PCP:  0.03;

RHINELANDER    CLOUDY    65  65 100 S7        29.61F
6HR MIN TEMP:  63; 6HR MAX TEMP:  65; 6HR PCP: TRACE;

EAGLE RIVER    CLOUDY    64  64 100 S5        29.60F
6HR MIN TEMP:  62; 6HR MAX TEMP:  64;

LAND O LAKES   CLOUDY    65  65  99 S7        29.60F FOG
6HR MIN TEMP:  63; 6HR MAX TEMP:  65; 6HR PCP:  0.01;

PHILLIPS       CLOUDY    64  64 100 S7        29.57F
6HR MIN TEMP:  64; 6HR MAX TEMP:  66;

TOMAHAWK       NOT AVBL
MEDFORD        MOCLDY    63  61  94 SW9       29.61S
6HR MIN TEMP:  63; 6HR MAX TEMP:  66; 6HR PCP:  0.08;

MERRILL        CLOUDY    65  65 100 S3        29.61S
6HR MIN TEMP:  65; 6HR MAX TEMP:  66;

$$

WIZ029-030-035-036-043>047-290700-
CENTRAL WISCONSIN

CITY           SKY/WX    TMP DP  RH WIND       PRES   REMARKS
WAUSAU         CLOUDY    65  65 100 S8        29.60F
6HR MIN TEMP:  65; 6HR MAX TEMP:  67; 6HR PCP:  0.06;

MOSINEE        CLOUDY    64  64 100 S7        29.62F FOG
MARSHFIELD     CLOUDY    65  63  93 SW6       29.61S FOG
6HR MIN TEMP:  64; 6HR MAX TEMP:  66; 6HR PCP:  0.03;

STEVENS POINT  CLOUDY    64  64 100 SW6       29.62F
6HR MIN TEMP:  64; 6HR MAX TEMP:  66;

WAUPACA        CLOUDY    66  65  97 S6        29.63S
6HR MIN TEMP:  66; 6HR MAX TEMP:  69; 6HR PCP:  0.01;

WAUTOMA        CLOUDY    64  63  96 CALM      29.64S
6HR MIN TEMP:  64; 6HR MAX TEMP:  68; 6HR PCP: TRACE;

WISC RAPIDS    MOCLDY    66  64  93 SW6       29.63F
6HR MIN TEMP:  66; 6HR MAX TEMP:  69; 6HR PCP:  0.01;

CAMP DOUGLAS   MOCLDY    66  61  85 W3        29.61S
6HR MIN TEMP:  66; 6HR MAX TEMP:  69; 6HR PCP:  0.03;

$$

WIZ011>013-019>022-031-037>040-048>050-290700-
NORTHEAST WISCONSIN

CITY           SKY/WX    TMP DP  RH WIND       PRES   REMARKS
ANTIGO         CLOUDY    64  64 100 S7        29.63F
6HR MIN TEMP:  64; 6HR MAX TEMP:  64;

SHAWANO        CLOUDY    66  64  94 S5        29.62F
OCONTO         MOCLDY    64  61  90 SW3       29.62F
6HR MIN TEMP:  63; 6HR MAX TEMP:  65;

STURGEON BAY     N/A     61  59  93 S10       29.65F
6HR MIN TEMP:  59; 6HR MAX TEMP:  63;

GREEN BAY      MOCLDY    67  66  97 S10       29.64F
6HR MIN TEMP:  65; 6HR MAX TEMP:  68;

MANITOWOC      LGT RAIN  57  57 100 S9        29.67F
6HR MIN TEMP:  58; 6HR MAX TEMP:  64; 6HR PCP:  0.06;

APPLETON       MOCLDY    63  63 100 S9        29.63F
CLINTONVILLE   CLOUDY    64  61  88 S6        29.62F
OSHKOSH        CLOUDY    66  63  90 S6        29.64F
6HR MIN TEMP:  65; 6HR MAX TEMP:  69; 6HR PCP:  0.03;

$$

WIZ032>034-041-042-053>061-290700-
SOUTHWEST WISCONSIN

CITY           SKY/WX    TMP DP  RH WIND       PRES   REMARKS
LA CROSSE      CLOUDY    70  65  84 S10       29.63F
6HR MIN TEMP:  70; 6HR MAX TEMP:  75; 6HR PCP:  0.48;

SPARTA         CLOUDY    64  64  97 SW3       29.65S
6HR MIN TEMP:  64; 6HR MAX TEMP:  69; 6HR PCP:  0.07;

VIROQUA        CLOUDY    64  64 100 SW8       29.67F
6HR MIN TEMP:  64; 6HR MAX TEMP:  67; 6HR PCP:  0.25;

BOSCOBEL       CLOUDY    67  65  93 CALM      29.66F
6HR MIN TEMP:  66; 6HR MAX TEMP:  71;

PRAIRIE DU CHI MOCLDY    66  64  94 CALM      29.68F
6HR MIN TEMP:  64; 6HR MAX TEMP:  68;

PLATTEVILLE    MOCLDY    67  67 100 SE6       29.71S
6HR MIN TEMP:  66; 6HR MAX TEMP:  68; 6HR PCP:  0.51;

$$

WIZ056-057-062-063-064-067-068-290700-
SOUTH CENTRAL WISCONSIN

CITY           SKY/WX    TMP DP  RH WIND       PRES   REMARKS
REEDSBURG      CLOUDY    67  67 100 S16G26    29.61F
6HR MIN TEMP:  65; 6HR MAX TEMP:  68;

BARABOO/DELLS  LGT RAIN  67  64  90 S13G30    29.61F
6HR MIN TEMP:  66; 6HR MAX TEMP:  69;

LONE ROCK      MOCLDY    67  65  93 SE5       29.66F
6HR MIN TEMP:  66; 6HR MAX TEMP:  71; 6HR PCP:  0.01;

MINERAL POINT  CLOUDY    66  66 100 CALM      29.73R
MADISON        CLOUDY    66  65  96 S10       29.70F
6HR MIN TEMP:  63; 6HR MAX TEMP:  70; 6HR PCP:  1.07;

MIDDLETON      CLOUDY    68  68 100 SW9       29.70F
6HR MIN TEMP:  66; 6HR MAX TEMP:  70; 6HR PCP:  0.41;

WATERTOWN      CLOUDY    65  65 100 S10G16    29.72R
6HR MIN TEMP:  62; 6HR MAX TEMP:  66;

MONROE         LGT RAIN  68  64  88 S13       29.73F
JANESVILLE     HVY RAIN  68  68 100 NW23G33   29.78R
$$

WIZ051-052-058>065-066-070>072-290700-
SOUTHEAST WISCONSIN

CITY           SKY/WX    TMP DP  RH WIND       PRES   REMARKS
MILWAUKEE      TSTM      67  64  90 S12       29.75R
6HR MIN TEMP:  65; 6HR MAX TEMP:  73; 6HR PCP:  1.23;

WAUKESHA       CLOUDY    63  61  94 S9        29.75R
MILWAUKEE/TIMM CLOUDY    64  61  88 S13       29.73R
RACINE         LGT RAIN  65  63  93 S18G26    29.78R
6HR MIN TEMP:  64; 6HR MAX TEMP:  73; 6HR PCP:  1.24;

KENOSHA        CLOUDY    66  63  90 S10       29.76F
6HR MIN TEMP:  64; 6HR MAX TEMP:  74; 6HR PCP:  0.59;

FOND DU LAC    CLOUDY    68  62  81 S12       29.66F
6HR MIN TEMP:  65; 6HR MAX TEMP:  69; 6HR PCP:  0.09;

SHEBOYGAN      CLOUDY    64  64 100 S15       29.68F
6HR MIN TEMP:  62; 6HR MAX TEMP:  65; 6HR PCP:  0.10;

WEST BEND      CLOUDY    63  63 100 S14       29.68F
JUNEAU         CLOUDY    65  63  94 S17G23    29.68F
6HR MIN TEMP:  62; 6HR MAX TEMP:  67; 6HR PCP:  0.23;

$$

LSZ147-162-290700-
LAKE SUPERIOR

STATION/POSITION TIME  TEMP    WIND        PRES    WAVE
                       AIR SEA DIR/SP/G            HT/PER
                 (UTC) (F)     (DEG/KT/KT) (MB)    (FT/S)
W MID LAKE BUOY  0550   46 39   40/ 14/ 17 1000.5F   2/ 5
DEVILS ISLAND    0600   51      70/ 15/ 18  999.2F
SAXON HARBOR     0540   66     190/  1/  4  999.0F
$$

LMZ867-665-643>646-290700-
LAKE MICHIGAN

STATION/POSITION TIME  TEMP    WIND        PRES    WAVE
                       AIR SEA DIR/SP/G            HT/PER
                 (UTC) (F)     (DEG/KT/KT) (MB)    (FT/S)
CHAMBERS ISLAND  0540   63     150/  4/  9 1003.7S
S GREEN BAY BUOY 0600   67     190/ 14/ 17 1003.2
N MID LAKE BUOY  0550   57 54  180/ 19/ 21 1004.8F   8/ 8
NORTHPORT PIER   0530   59     160/  7/ 14 1004.4S
KEWAUNEE LAKESHO 0554   54     180/ 16



USA.gov is the U.S. government's official web portal to all federal, state and local government web resources and services.